WB5TZJ Weather Reports


time (UTC)temp
F
wind
direction
speed
knots
gust
knots
rain 1hr
in
rain 24hr
in
rain mn
in
humidity
%
barometer
mb
20260510192009 74 0 0.0 0.0 0.00 0.00 0.00 45 1009.8
20260510191009 74 0 0.0 0.0 0.00 0.00 0.00 46 1009.8
20260510190009 74 0 0.0 0.0 0.00 0.00 0.00 46 1009.8
20260510185009 73 0 0.0 0.0 0.00 0.00 0.00 46 1010.1
20260510184009 73 0 0.0 0.0 0.00 0.00 0.00 46 1010.1
20260510183009 73 0 0.0 0.0 0.00 0.00 0.00 46 1010.4
20260510182009 73 0 0.0 0.0 0.00 0.00 0.00 46 1010.4
20260510181009 73 0 0.0 0.0 0.00 0.00 0.00 46 1010.4
20260510180009 73 0 0.0 0.0 0.00 0.00 0.00 46 1010.4
20260510175009 73 0 0.0 0.0 0.00 0.00 0.00 46 1010.4
20260510174009 73 0 0.0 0.0 0.00 0.00 0.00 46 1010.4
20260510173009 73 0 0.0 0.0 0.00 0.00 0.00 46 1010.4
20260510172009 73 0 0.0 0.0 0.00 0.00 0.00 46 1010.8
20260510171009 73 0 0.0 0.0 0.00 0.00 0.00 46 1010.8
20260510170009 73 0 0.0 0.0 0.00 0.00 0.00 46 1011.1
20260510165009 73 0 0.0 0.0 0.00 0.00 0.00 46 1011.1
20260510164009 73 0 0.0 0.0 0.00 0.00 0.00 45 1010.8
20260510163009 73 0 0.0 0.0 0.00 0.00 0.00 45 1010.8
20260510162009 73 0 0.0 0.0 0.00 0.00 0.00 46 1010.8
20260510161009 73 0 0.0 0.0 0.00 0.00 0.00 46 1011.1
20260510160009 73 0 0.0 0.0 0.00 0.00 0.00 45 1011.1
20260510155009 73 0 0.0 0.0 0.00 0.00 0.00 46 1010.8
20260510154009 73 0 0.0 0.0 0.00 0.00 0.00 45 1010.8
20260510153009 73 0 0.0 0.0 0.00 0.00 0.00 45 1011.1
20260510152009 72 0 0.0 0.0 0.00 0.00 0.00 45 1010.8
20260510151009 72 0 0.0 0.0 0.00 0.00 0.00 45 1010.4
20260510150009 72 0 0.0 0.0 0.00 0.00 0.00 45 1010.8
20260510145009 72 0 0.0 0.0 0.00 0.00 0.00 44 1011.1
20260510144009 72 0 0.0 0.0 0.00 0.00 0.00 44 1010.8
20260510143009 72 0 0.0 0.0 0.00 0.00 0.00 44 1011.1
20260510142009 72 0 0.0 0.0 0.00 0.00 0.00 43 1011.1
20260510141009 72 0 0.0 0.0 0.00 0.00 0.00 43 1011.1
20260510140009 72 0 0.0 0.0 0.00 0.00 0.00 43 1011.1
20260510135010 72 0 0.0 0.0 0.00 0.00 0.00 43 1011.1
20260510134010 72 0 0.0 0.0 0.00 0.00 0.00 44 1011.1
20260510133010 72 0 0.0 0.0 0.00 0.00 0.00 45 1010.8
20260510132512 72 0 0.0 0.0 0.00 0.00 0.00 44 1011.1
20260510132010 72 0 0.0 0.0 0.00 0.00 0.00 42 1010.8
20260510131010 72 0 0.0 0.0 0.00 0.00 0.00 43 1010.4
20260510130010 72 0 0.0 0.0 0.00 0.00 0.00 44 1010.4
20260510125010 73 0 0.0 0.0 0.00 0.00 0.00 44 1010.4
20260510124010 73 0 0.0 0.0 0.00 0.00 0.00 43 1010.4
20260510123010 73 0 0.0 0.0 0.00 0.00 0.00 44 1010.4
20260510122010 73 0 0.0 0.0 0.00 0.00 0.00 47 1010.4
20260510121010 72 0 0.0 0.0 0.00 0.00 0.00 46 1010.4
20260510120010 72 0 0.0 0.0 0.00 0.00 0.00 43 1010.4
20260510115010 72 0 0.0 0.0 0.00 0.00 0.00 46 1010.4
20260510114010 72 0 0.0 0.0 0.00 0.00 0.00 42 1010.4
20260510113010 72 0 0.0 0.0 0.00 0.00 0.00 45 1010.4
20260510112010 72 0 0.0 0.0 0.00 0.00 0.00 41 1010.4
20260510111010 73 0 0.0 0.0 0.00 0.00 0.00 42 1010.1
20260510110010 73 0 0.0 0.0 0.00 0.00 0.00 42 1009.8
20260510105010 73 0 0.0 0.0 0.00 0.00 0.00 44 1009.8
20260510104010 73 0 0.0 0.0 0.00 0.00 0.00 46 1009.8
20260510103010 72 0 0.0 0.0 0.00 0.00 0.00 43 1009.8
20260510102010 72 0 0.0 0.0 0.00 0.00 0.00 42 1009.8
20260510101010 73 0 0.0 0.0 0.00 0.00 0.00 42 1009.8
20260510100010 73 0 0.0 0.0 0.00 0.00 0.00 44 1009.4
20260510095010 73 0 0.0 0.0 0.00 0.00 0.00 46 1009.4
20260510094010 72 0 0.0 0.0 0.00 0.00 0.00 46 1009.4
20260510093010 72 0 0.0 0.0 0.00 0.00 0.00 42 1009.4
20260510092010 72 0 0.0 0.0 0.00 0.00 0.00 42 1009.4
20260510091010 72 0 0.0 0.0 0.00 0.00 0.00 44 1009.1
20260510090010 72 0 0.0 0.0 0.00 0.00 0.00 41 1009.1
20260510085010 72 0 0.0 0.0 0.00 0.00 0.00 41 1009.1
20260510084010 72 0 0.0 0.0 0.00 0.00 0.00 42 1009.1
20260510083010 73 0 0.0 0.0 0.00 0.00 0.00 42 1009.1
20260510082011 73 0 0.0 0.0 0.00 0.00 0.00 43 1009.4
20260510081011 73 0 0.0 0.0 0.00 0.00 0.00 46 1009.1
20260510080011 72 0 0.0 0.0 0.00 0.00 0.00 46 1009.4
20260510075011 72 0 0.0 0.0 0.00 0.00 0.00 42 1009.4
20260510074011 72 0 0.0 0.0 0.00 0.00 0.00 42 1009.1
20260510073011 72 0 0.0 0.0 0.00 0.00 0.00 43 1009.4
20260510072011 72 0 0.0 0.0 0.00 0.00 0.00 45 1009.1
20260510071011 72 0 0.0 0.0 0.00 0.00 0.00 43 1009.4
20260510070011 72 0 0.0 0.0 0.00 0.00 0.00 45 1009.4
20260510065011 72 0 0.0 0.0 0.00 0.00 0.00 41 1009.4
20260510064011 72 0 0.0 0.0 0.00 0.00 0.00 42 1009.4
20260510063011 72 0 0.0 0.0 0.00 0.00 0.00 42 1009.1
20260510062011 72 0 0.0 0.0 0.00 0.00 0.00 42 1009.4
20260510061011 72 0 0.0 0.0 0.00 0.00 0.00 42 1009.4
20260510060011 72 0 0.0 0.0 0.00 0.00 0.00 42 1009.4
20260510055011 72 0 0.0 0.0 0.00 0.00 0.00 43 1009.4
20260510054011 72 0 0.0 0.0 0.00 0.00 0.00 45 1009.4
20260510053011 72 0 0.0 0.0 0.00 0.00 0.00 43 1009.4
20260510052011 72 0 0.0 0.0 0.00 0.00 0.00 41 1009.4
20260510051011 72 0 0.0 0.0 0.00 0.00 0.00 41 1009.4
20260510050011 72 0 0.0 0.0 0.00 0.00 0.00 42 1009.4
20260510045011 72 0 0.0 0.0 0.00 0.00 0.00 42 1009.4
20260510044011 72 0 0.0 0.0 0.00 0.00 0.00 42 1009.1
20260510043011 72 0 0.0 0.0 0.00 0.00 0.00 42 1009.1
20260510042011 72 0 0.0 0.0 0.00 0.00 0.00 42 1009.1
20260510041011 72 0 0.0 0.0 0.00 0.00 0.00 42 1009.1
20260510040011 72 0 0.0 0.0 0.00 0.00 0.00 42 1009.1
20260510035011 72 0 0.0 0.0 0.00 0.00 0.00 42 1009.1
20260510034011 72 0 0.0 0.0 0.00 0.00 0.00 42 1008.8
20260510033011 72 0 0.0 0.0 0.00 0.00 0.00 42 1008.4
20260510032011 72 0 0.0 0.0 0.00 0.00 0.00 42 1008.4
20260510031011 72 0 0.0 0.0 0.00 0.00 0.00 42 1008.1
20260510030011 72 0 0.0 0.0 0.00 0.00 0.00 42 1008.1
20260510025011 73 0 0.0 0.0 0.00 0.00 0.00 42 1008.1
20260510024011 73 0 0.0 0.0 0.00 0.00 0.00 42 1008.1
20260510023011 73 0 0.0 0.0 0.00 0.00 0.00 43 1007.7
20260510022012 73 0 0.0 0.0 0.00 0.00 0.00 42 1007.7
20260510021012 73 0 0.0 0.0 0.00 0.00 0.00 42 1007.7
20260510020012 73 0 0.0 0.0 0.00 0.00 0.00 42 1007.4
20260510015012 73 0 0.0 0.0 0.00 0.00 0.00 42 1007.4
20260510014012 73 0 0.0 0.0 0.00 0.00 0.00 43 1007.1
20260510013012 73 0 0.0 0.0 0.00 0.00 0.00 42 1007.1
20260510012012 73 0 0.0 0.0 0.00 0.00 0.00 42 1006.7
20260510011012 73 0 0.0 0.0 0.00 0.00 0.00 42 1006.7
20260510010012 73 0 0.0 0.0 0.00 0.00 0.00 42 1006.7
20260510005012 73 0 0.0 0.0 0.00 0.00 0.00 43 1006.7
20260510004012 73 0 0.0 0.0 0.00 0.00 0.00 43 1006.7
20260510003012 73 0 0.0 0.0 0.00 0.00 0.00 43 1006.4
20260510002012 73 0 0.0 0.0 0.00 0.00 0.00 43 1006.4
20260510001012 73 0 0.0 0.0 0.00 0.00 0.00 43 1006.4
20260510000012 73 0 0.0 0.0 0.00 0.00 0.00 43 1006.4
20260509235012 73 0 0.0 0.0 0.00 0.00 0.00 43 1006.4
20260509234012 73 0 0.0 0.0 0.00 0.00 0.00 43 1006.4
20260509233012 73 0 0.0 0.0 0.00 0.00 0.00 43 1006.4
20260509232012 73 0 0.0 0.0 0.00 0.00 0.00 43 1006.4
20260509231012 73 0 0.0 0.0 0.00 0.00 0.00 43 1006.7
20260509230012 73 0 0.0 0.0 0.00 0.00 0.00 43 1006.4
20260509225012 73 0 0.0 0.0 0.00 0.00 0.00 43 1006.7
20260509224012 73 0 0.0 0.0 0.00 0.00 0.00 43 1006.7
20260509223012 73 0 0.0 0.0 0.00 0.00 0.00 43 1006.7
20260509222012 73 0 0.0 0.0 0.00 0.00 0.00 43 1006.7
20260509221012 73 0 0.0 0.0 0.00 0.00 0.00 43 1006.7
20260509220012 73 0 0.0 0.0 0.00 0.00 0.00 43 1007.1
20260509215012 72 0 0.0 0.0 0.00 0.00 0.00 43 1007.4
20260509214012 72 0 0.0 0.0 0.00 0.00 0.00 44 1007.4
20260509213012 72 0 0.0 0.0 0.00 0.00 0.00 44 1007.4
20260509212012 72 0 0.0 0.0 0.00 0.00 0.00 43 1007.7
20260509211012 72 0 0.0 0.0 0.00 0.00 0.00 43 1007.7
20260509210012 72 0 0.0 0.0 0.00 0.00 0.00 43 1007.7
20260509205012 72 0 0.0 0.0 0.00 0.00 0.00 43 1008.1
20260509204012 72 0 0.0 0.0 0.00 0.00 0.00 44 1008.1
20260509203013 72 0 0.0 0.0 0.00 0.00 0.00 43 1008.4
20260509202013 72 0 0.0 0.0 0.00 0.00 0.00 43 1008.8
20260509201013 72 0 0.0 0.0 0.00 0.00 0.00 43 1008.8
20260509200013 72 0 0.0 0.0 0.00 0.00 0.00 43 1008.8
20260509195013 72 0 0.0 0.0 0.00 0.00 0.00 43 1009.1
20260509194013 72 0 0.0 0.0 0.00 0.00 0.00 43 1009.4
20260509193013 72 0 0.0 0.0 0.00 0.00 0.00 43 1009.4